Location: Brienzwiler
(46.7508°N, 8.1014°E)
Time: 07:45:17
(UTC+00:00)

Cosmos 2237 - Pass Details

Date: 05 July 2020
Orbit: 844 x 857 km, 70.8° (Epoch: 05 August)

Event Time Altitude Azimuth Distance (km) Brightness Sun altitude
Rises 19:56:02 0° 193° (SSW) 3,409 7.1 -5.2°
Reaches altitude 10° 19:58:30 10° 190° (S) 2,479 6.3 -5.5°
Maximum altitude 20:04:05 60° 111° (ESE) 975 4.3 -6.2°
Drops below altitude 10° 20:09:44 10° 33° (NNE) 2,500 6.8 -6.9°
Sets 20:12:14 0° 30° (NNE) 3,441 7.6 -7.2°
